(312) Pierretta
ephemeris date magn radius delta ra dec elong phase
Today4 Sep 202614.22.969 AU2.440 AU03h00m+21°53'112.0°18.4°
Opposition3 Nov 202613.23.048 AU2.062 AU02h27m+22°44'172.2°2.5°
(312) Pierretta - 2026-09-04
astro.vanbuitenen.nl


 
-1 year
-1 month
-1 day
Now
+1 day
+1 month
+1 year

The interactive orbit chart above shows the body's path through the solar system and its position at the given date. Green and blue lines are shown perpendicular to the ecliptic plane: Green if the path is above the ecliptic plane, blue if it is below. (Left-click and drag to rotate the view; Right-click and drag to move the view; Use scroll wheel to zoom in our out.)

The orbital elements of Pierretta are:

            e (Eccentricity)                : 0.1602788
            a (Semimajor axis)              : 2.7816262
            i (Inclination)                 : 9.03533
            Ω (Longitude of ascending node) : 6.19353
            ω (Argument of perihelion)      : 261.83463
            M (Mean anomaly)                : 87.97588
            Epoch                           : 2026 Jun 09

            L (Longitude of perihelion)     : 87.92698
            B (Latitude of perihelion)      : -8.94298
            P (Orbital period in years)     : 4.64            
        

The light curve chart below shows the estimated development of the minor planet's magnitude.


The all-sky chart below shows the path of the minor planet over the same period as the light curve. The current position is marked yellow.





The following chart shows the path of the minor planet in the next few days. The field of view is optimized for (~10x50) binoculars and finderscopes.




Ephemerides:
Date       Time       RA (2000)    DEC (2000)    delta   radius  elong  phase   PA    magn
2026-09-04 00:00 UT   03 00 58.0   +21 53 18     2.440    2.969  112.0   18.4   252   14.2 
2026-09-04 01:06 UT   03 00 58.3   +21 53 29     2.439    2.969  112.0   18.4   252   14.2 
2026-09-05 00:00 UT   03 01 04.4   +21 57 13     2.428    2.970  112.9   18.2   252   14.2 
2026-09-06 00:00 UT   03 01 09.3   +22 01 04     2.417    2.971  113.9   18.1   252   14.2 
2026-09-07 00:00 UT   03 01 12.9   +22 04 49     2.406    2.973  114.8   17.9   251   14.1 
2026-09-08 00:00 UT   03 01 14.9   +22 08 30     2.395    2.974  115.7   17.8   251   14.1 
2026-09-09 00:00 UT   03 01 15.5   +22 12 06     2.384    2.976  116.7   17.6   251   14.1 
2026-09-10 00:00 UT   03 01 14.6   +22 15 37     2.373    2.977  117.6   17.4   251   14.1 
2026-09-11 00:00 UT   03 01 12.1   +22 19 03     2.362    2.978  118.6   17.3   251   14.1 
2026-09-12 00:00 UT   03 01 08.2   +22 22 23     2.352    2.980  119.5   17.1   251   14.1 
2026-09-13 00:00 UT   03 01 02.8   +22 25 38     2.341    2.981  120.5   16.9   251   14.1 
2026-09-14 00:00 UT   03 00 55.8   +22 28 48     2.331    2.983  121.5   16.7   250   14.0 
2026-09-15 00:00 UT   03 00 47.4   +22 31 52     2.321    2.984  122.5   16.5   250   14.0 
2026-09-16 00:00 UT   03 00 37.4   +22 34 51     2.310    2.985  123.5   16.3   250   14.0 
2026-09-17 00:00 UT   03 00 25.8   +22 37 44     2.301    2.987  124.5   16.1   250   14.0 
2026-09-18 00:00 UT   03 00 12.8   +22 40 31     2.291    2.988  125.5   15.9   250   14.0 
2026-09-19 00:00 UT   02 59 58.2   +22 43 13     2.281    2.989  126.5   15.7   250   14.0 
2026-09-20 00:00 UT   02 59 42.1   +22 45 49     2.271    2.991  127.5   15.5   249   13.9 
2026-09-21 00:00 UT   02 59 24.5   +22 48 18     2.262    2.992  128.5   15.2   249   13.9 
2026-09-22 00:00 UT   02 59 05.4   +22 50 42     2.253    2.993  129.5   15.0   249   13.9 
2026-09-23 00:00 UT   02 58 44.8   +22 52 59     2.244    2.995  130.5   14.8   249   13.9 
2026-09-24 00:00 UT   02 58 22.6   +22 55 11     2.235    2.996  131.6   14.5   248   13.9 
2026-09-25 00:00 UT   02 57 59.0   +22 57 15     2.226    2.997  132.6   14.3   248   13.9 
2026-09-26 00:00 UT   02 57 33.9   +22 59 14     2.217    2.999  133.7   14.0   248   13.9 
2026-09-27 00:00 UT   02 57 07.2   +23 01 06     2.209    3.000  134.7   13.7   247   13.8 
2026-09-28 00:00 UT   02 56 39.2   +23 02 51     2.201    3.001  135.8   13.5   247   13.8 
2026-09-29 00:00 UT   02 56 09.6   +23 04 29     2.193    3.003  136.8   13.2   247   13.8 
2026-09-30 00:00 UT   02 55 38.7   +23 06 01     2.185    3.004  137.9   12.9   246   13.8 
2026-10-01 00:00 UT   02 55 06.2   +23 07 25     2.177    3.005  139.0   12.6   246   13.8 
2026-10-02 00:00 UT   02 54 32.4   +23 08 43     2.170    3.007  140.1   12.3   246   13.8 
2026-10-03 00:00 UT   02 53 57.2   +23 09 53     2.162    3.008  141.2   12.0   245   13.7 
2026-10-04 00:00 UT   02 53 20.6   +23 10 56     2.155    3.009  142.2   11.7   245   13.7 


    Terminology:
            
    delta:  distance between minor planet and earth in AU
    radius: distance between minor planet and sun in AU
    magn:   magnitude (brightness) estimate    
    ra:     right ascension in hours (24h = 360deg)
    dec:    declination in degrees
    elong:  elongation in degrees (angle sun-earth-minor planet)    
    phase:  phase angle in degrees (angle sun-minor planet-earth)        
    AU:     Astronomical Unit (mean distance between earth and sun: 149597870.7 km
    

Orbital elements provided by the MPC (Minor Planet Center).
Calculations by a modified version of AAPlus, a C# implementation of the AA+ project by PJ Naughter from the algorithms presented in the book "Astronomical Algorithms" by Jean Meeus.
NGC2000 dso catalog and star labels from VizieR as provided by the Strasbourg astronomical Data Center.
Tycho2 catalog from the ESO archive.